Showing default

BEIDOU 3M21, 44793

Orbit data source: Space-Track

BEIDOU 3M21, 44793 is a payload satellite owned by CNSA (CN) in MEO that was launched on Sat, 23 Nov 2019 UTC via a CHANG ZHENG 3B/YZ-1 launch vehicle from the Xichang Space Center, China (XSC). Payload-class satellites include a variety of spacecraft equipped with specific instruments for various scientific and technological missions. These include communications satellites like Starlink; space stations such as the ISS; scientific satellites like the Hubble; Earth observation satellites from companies like Planet Labs, Umbra, and HawkEye 360; GPS; miniature CubeSats for education and research; and military/defense satellites.

Loading next visibility...
Identifier
44793, 2019-078A
Orbit
MEO
Country
Flag of CNCN / PRC
Related business
Manufacturer
SECM
Mission
Operational Defense Navigation
Bus & Motor
BD-3M2, Unknown motor
Mass
1,014 kg wet, ~850 kg dry
Launch date (UTC)
2019-11-23 (7 years ago)
Launch vehicle
CHANG ZHENG 3B/YZ-1
Launch site
Xichang Space Center, China (XSC)
Object type
Payload
Rocket body
Debris
Shape & HBR
Box + 2 Pan, Unknown HBR
Radar Cross Section
8.984 m², Large (>1 m²)

Expand to show TLE details & history
Last TLE update: 2 days ago

TLE from 2 days ago
0 BEIDOU 3M21
1 44793U 19078A   26171.30405669 -.00000090  00000-0  00000+0 0  9991
2 44793  53.9328 299.7182 0006301  50.9808 309.0727  1.86227062 44704
Epoch: 2026-06-20T07:17Z
TLE epoch observation values (Epoch: 2026-06-20T07:17:50.498Z)
Latitude
-0.00002°
Longitude
-78.27927°
Altitude
21,517.631 km
Speed
3.781 km/s
True Right ascension
19h 58m 48s
True Declination
0° 00' 00"
Sunlit
Object was in daylight at epoch
Visualization orbit readout
Latitude
Unknown
Longitude
Unknown
Altitude
Unknown
Speed
Unknown
Apparent Right ascension
Unknown
Apparent Declination
Unknown
Sunlit
N/A
Visualization observer readout
Local Sidereal Time
23:20:35
Azimuth
Unknown
Elevation
Unknown
Doppler factor
Unknown
Orbital elements
Apogee altitude
21,546.077 km
Perigee altitude
21,510.91 km
Semi-major axis
27,906.631 km
Eccentricity
0.00063
Inclination
53.9328°
RAAN
299.7182°
Arg. of periapsis
50.9808°
True anomaly
309.01662°
Mean anomaly
309.0727°
Eccentric anomaly
309.04466°
Mean motion
0.46557 °/min
Orbital period
773.25 mins
BSTAR
0
Loading maneuver chart data...
Computing Atmospheric mass density...
Loading historical data...
Loading historical data...
Loading historical data...
Loading historical data...
Loading historical data...
Loading historical data...
Loading historical data...
Other satellites on launch #78 in the year 2019 (2019-11-23 UTC)

Documentation

Showing up to 5 results
|